When you browse on this site, cookies collect data to enhance your experience and personalize the content and advertising you see.
Visit our Privacy Policy to learn more. By continuing to use the site, you agree to this use of cookies and data.
  • In Sweden
  • List of Countries
  • For 7 days
  • Water Temperature
  • Weather Map
  • Weather Widgets
  • user-avatar
    Login

    Hourly Weather Agazzano

    Today, 14 November, Thursday

    Time Temperature Precipitation Wind Pressure Humidity
    00:00 +6°C° 0 mm 1 mps 743 mmHg 65%
    01:00 +6°C° 0 mm 1 mps 743 mmHg 68%
    02:00 +6°C° 0 mm 1 mps 743 mmHg 72%
    03:00 +6°C° 0 mm 1 mps 743 mmHg 76%
    04:00 +4°C° 0 mm 2 mps 744 mmHg 80%
    05:00 +5°C° 0 mm 1 mps 744 mmHg 82%
    06:00 +5°C° 0 mm 1 mps 744 mmHg 84%
    07:00 +5°C° 0 mm 1 mps 745 mmHg 86%
    08:00 +5°C° 0 mm 2 mps 745 mmHg 84%
    09:00 +6°C° 0 mm 2 mps 745 mmHg 81%
    10:00 +7°C° 0 mm 2 mps 745 mmHg 79%
    11:00 +8°C° 0 mm 2 mps 745 mmHg 79%
    12:00 +8°C° 0 mm 2 mps 744 mmHg 79%
    13:00 +9°C° 0 mm 2 mps 744 mmHg 78%
    14:00 +8°C° 0 mm 2 mps 744 mmHg 80%
    15:00 +8°C° 0 mm 3 mps 743 mmHg 82%
    16:00 +8°C° 0 mm 3 mps 743 mmHg 84%
    17:00 +8°C° 0 mm 3 mps 742 mmHg 84%
    18:00 +7°C° 0 mm 4 mps 742 mmHg 84%
    19:00 +7°C° 0 mm 5 mps 742 mmHg 85%
    20:00 +7°C° 0.5 mm 5 mps 741 mmHg 86%
    21:00 +7°C° 0.5 mm 6 mps 741 mmHg 87%
    22:00 +8°C° 0.5 mm 7 mps 740 mmHg 88%
    23:00 +8°C° 2.4 mm 7 mps 740 mmHg 89%

    Tomorrow, 15 November, Friday

    Time Temperature Precipitation Wind Pressure Humidity
    00:00 +6°C° 2.4 mm 7 mps 739 mmHg 90%
    01:00 +6°C° 2.4 mm 7 mps 739 mmHg 91%
    02:00 +7°C° 4.6 mm 6 mps 738 mmHg 92%
    03:00 +7°C° 4.6 mm 4 mps 738 mmHg 93%
    04:00 +8°C° 4.6 mm 2 mps 738 mmHg 94%
    05:00 +8°C° 0.3 mm 2 mps 738 mmHg 94%
    06:00 +7°C° 0.3 mm 2 mps 739 mmHg 93%
    07:00 +8°C° 0.3 mm 1 mps 739 mmHg 93%
    08:00 +8°C° 0.2 mm 1 mps 739 mmHg 92%
    09:00 +8°C° 0.2 mm 1 mps 739 mmHg 91%
    10:00 +9°C° 0.2 mm 1 mps 739 mmHg 90%
    11:00 +9°C° 0.5 mm 1 mps 739 mmHg 90%
    12:00 +8°C° 0.5 mm 2 mps 739 mmHg 89%
    13:00 +8°C° 0.5 mm 2 mps 739 mmHg 88%
    14:00 +9°C° 0.1 mm 1 mps 740 mmHg 89%
    15:00 +9°C° 0.1 mm 1 mps 740 mmHg 89%
    16:00 +9°C° 0.1 mm 1 mps 740 mmHg 89%
    17:00 +9°C° 0 mm 1 mps 740 mmHg 90%
    18:00 +8°C° 0 mm 1 mps 741 mmHg 91%
    19:00 +8°C° 0 mm 1 mps 742 mmHg 91%
    20:00 +8°C° 0.3 mm 1 mps 742 mmHg 92%
    21:00 +8°C° 0.3 mm 1 mps 743 mmHg 93%
    22:00 +8°C° 0.3 mm 1 mps 743 mmHg 94%
    23:00 +8°C° 0.8 mm 1 mps 744 mmHg 95%

    Day after tomorrow, 16 November, Saturday

    Time Temperature Precipitation Wind Pressure Humidity
    00:00 +8°C° 0.8 mm 1 mps 744 mmHg 95%
    01:00 +8°C° 0.8 mm 1 mps 745 mmHg 96%
    02:00 +7°C° 0 mm 1 mps 745 mmHg 96%
    03:00 +7°C° 0 mm 1 mps 745 mmHg 95%
    04:00 +7°C° 0 mm 1 mps 745 mmHg 95%
    05:00 +7°C° 0 mm 1 mps 746 mmHg 94%
    06:00 +7°C° 0 mm 1 mps 746 mmHg 93%
    07:00 +7°C° 0 mm 1 mps 746 mmHg 93%
    08:00 +7°C° 0 mm 1 mps 747 mmHg 91%
    09:00 +8°C° 0 mm 1 mps 747 mmHg 89%
    10:00 +9°C° 0 mm 1 mps 748 mmHg 87%
    11:00 +10°C° 0 mm 1 mps 748 mmHg 86%
    12:00 +10°C° 0 mm 1 mps 748 mmHg 86%
    13:00 +10°C° 0 mm 1 mps 748 mmHg 85%
    14:00 +10°C° 0 mm 1 mps 747 mmHg 86%
    15:00 +10°C° 0 mm 1 mps 747 mmHg 88%
    16:00 +10°C° 0 mm 1 mps 747 mmHg 90%
    17:00 +9°C° 0.1 mm 1 mps 747 mmHg 91%
    18:00 +8°C° 0.1 mm 2 mps 747 mmHg 92%
    19:00 +8°C° 0.1 mm 2 mps 747 mmHg 93%
    20:00 +8°C° 1.3 mm 3 mps 747 mmHg 93%
    21:00 +8°C° 1.3 mm 3 mps 746 mmHg 94%
    22:00 +7°C° 1.3 mm 4 mps 746 mmHg 94%
    23:00 +7°C° 2.9 mm 4 mps 745 mmHg 94%

    17 November, Sunday

    Time Temperature Precipitation Wind Pressure Humidity
    00:00 +7°C° 2.9 mm 3 mps 744 mmHg 95%
    01:00 +7°C° 2.9 mm 3 mps 744 mmHg 95%
    02:00 +7°C° 2.3 mm 2 mps 743 mmHg 95%
    03:00 +7°C° 2.3 mm 2 mps 742 mmHg 96%
    04:00 +6°C° 2.3 mm 2 mps 741 mmHg 96%
    05:00 +6°C° 1.9 mm 2 mps 740 mmHg 96%
    06:00 +5°C° 1.9 mm 3 mps 740 mmHg 95%
    07:00 +5°C° 1.9 mm 3 mps 739 mmHg 95%
    08:00 +7°C° 1.3 mm 3 mps 739 mmHg 95%
    09:00 +7°C° 1.3 mm 2 mps 738 mmHg 95%
    10:00 +7°C° 1.3 mm 2 mps 738 mmHg 95%
    11:00 +8°C° 0.9 mm 2 mps 738 mmHg 95%
    12:00 +9°C° 0.9 mm 1 mps 739 mmHg 94%
    13:00 +9°C° 0.9 mm 1 mps 739 mmHg 94%
    14:00 +10°C° 0.1 mm 1 mps 739 mmHg 93%
    15:00 +9°C° 0.1 mm 2 mps 739 mmHg 92%
    16:00 +10°C° 0.1 mm 2 mps 740 mmHg 91%
    17:00 +9°C° 0.1 mm 2 mps 740 mmHg 91%
    18:00 +9°C° 0.1 mm 2 mps 740 mmHg 91%
    19:00 +8°C° 0.1 mm 3 mps 740 mmHg 91%
    20:00 +8°C° 0.1 mm 2 mps 741 mmHg 91%
    21:00 +8°C° 0.1 mm 2 mps 741 mmHg 92%
    22:00 +9°C° 0.1 mm 1 mps 741 mmHg 93%
    23:00 +8°C° 0.2 mm 1 mps 741 mmHg 93%

    18 November, Monday

    Time Temperature Precipitation Wind Pressure Humidity
    00:00 +8°C° 0.2 mm 1 mps 741 mmHg 94%
    01:00 +7°C° 0.2 mm 0 mps 741 mmHg 95%
    02:00 +8°C° 0 mm 1 mps 741 mmHg 95%
    03:00 +8°C° 0 mm 1 mps 741 mmHg 95%
    04:00 +8°C° 0 mm 1 mps 741 mmHg 95%
    05:00 +8°C° 0.1 mm 1 mps 741 mmHg 95%
    06:00 +7°C° 0.1 mm 0 mps 741 mmHg 94%
    07:00 +7°C° 0.1 mm 0 mps 741 mmHg 94%
    08:00 +8°C° 0.1 mm 0 mps 742 mmHg 94%
    09:00 +9°C° 0.1 mm 1 mps 742 mmHg 93%
    10:00 +9°C° 0.1 mm 1 mps 743 mmHg 93%
    11:00 +9°C° 0.2 mm 1 mps 743 mmHg 93%
    12:00 +10°C° 0.2 mm 1 mps 743 mmHg 93%
    13:00 +10°C° 0.2 mm 1 mps 743 mmHg 93%
    14:00 +10°C° 0.2 mm 1 mps 743 mmHg 93%
    15:00 +10°C° 0.2 mm 1 mps 743 mmHg 93%
    16:00 +10°C° 0.2 mm 1 mps 744 mmHg 93%
    17:00 +10°C° 0.7 mm 1 mps 744 mmHg 94%
    18:00 +9°C° 0.7 mm 1 mps 745 mmHg 95%
    19:00 +9°C° 0.7 mm 1 mps 745 mmHg 96%
    20:00 +9°C° 0.2 mm 1 mps 746 mmHg 95%
    21:00 +8°C° 0.2 mm 1 mps 746 mmHg 94%
    22:00 +8°C° 0.2 mm 1 mps 747 mmHg 94%
    23:00 +8°C° 0 mm 1 mps 747 mmHg 93%

    19 November, Tuesday

    Time Temperature Precipitation Wind Pressure Humidity
    00:00 +7°C° 0 mm 1 mps 747 mmHg 92%
    01:00 +7°C° 0 mm 1 mps 747 mmHg 92%
    02:00 +7°C° 0 mm 1 mps 747 mmHg 92%
    03:00 +7°C° 0 mm 1 mps 747 mmHg 92%
    04:00 +5°C° 0 mm 0 mps 747 mmHg 91%
    05:00 +5°C° 0 mm 0 mps 748 mmHg 91%
    06:00 +5°C° 0 mm 0 mps 748 mmHg 91%
    07:00 +5°C° 0 mm 0 mps 748 mmHg 90%
    08:00 +6°C° 0 mm 0 mps 749 mmHg 88%
    09:00 +8°C° 0 mm 1 mps 749 mmHg 87%
    10:00 +9°C° 0 mm 1 mps 749 mmHg 85%
    11:00 +10°C° 0 mm 1 mps 749 mmHg 84%
    12:00 +10°C° 0 mm 1 mps 749 mmHg 84%
    13:00 +11°C° 0 mm 1 mps 749 mmHg 83%
    14:00 +11°C° 0 mm 1 mps 749 mmHg 85%
    15:00 +10°C° 0 mm 1 mps 749 mmHg 86%
    16:00 +10°C° 0 mm 1 mps 749 mmHg 88%
    17:00 +9°C° 0 mm 1 mps 749 mmHg 89%
    18:00 +8°C° 0 mm 1 mps 750 mmHg 91%
    19:00 +7°C° 0 mm 1 mps 750 mmHg 92%
    20:00 +7°C° 0 mm 1 mps 751 mmHg 92%
    21:00 +7°C° 0 mm 1 mps 751 mmHg 91%
    22:00 +7°C° 0 mm 1 mps 751 mmHg 91%
    23:00 +7°C° 0 mm 1 mps 751 mmHg 91%
    Show more